Simultaneous Nadir Overpasses (SNOs) Predictions

Prediction of SNOs between GOES-15 and METOP-A Satellite Orbit:

Table of predicted SNOs for the next 14.0 days since TLE Epoch: 11/11/2016
Index Date Time (GOES-15) GOES-15 Lat,Lon METOP-A Lat,Lon Distance(km) Time Diff (sec)
1 11/12/2016 06:36:18 0.25,-135.15 -0.05,-136.39 141.80 80
2 11/13/2016 06:12:59 0.25,-135.17 1.07,-131.39 429.92 80
3 11/14/2016 18:31:50 -0.24,-135.20 -0.07,-135.95 85.42 80
4 11/15/2016 18:13:51 -0.24,-135.23 -1.19,-130.96 486.34 80
5 11/17/2016 06:32:51 0.23,-135.26 0.16,-135.55 33.11 80
6 11/19/2016 18:31:03 -0.22,-135.30 -0.28,-135.12 21.25 80
7 11/21/2016 06:50:03 0.21,-135.34 -0.75,-139.71 497.81 80
8 11/22/2016 06:26:44 0.22,-135.35 0.38,-134.72 72.91 80
9 11/23/2016 18:45:34
